Погода в Арапираке

Бразилия     9°45′25″S   36°37′38″W
темп.,
°C
ветер,
м/с
пор.,
м/с
влажн.,
%
обл.,
%
осадки,
мм/ч
давл.,
гПа
погр.,
м
26 февраля, пт
пт2600:00+23в37840 0.0 1012375
03:00+22в22910 0.0 101066
06:00+22в23912 0.0 1011154
09:00+29в445218 0.0 10121206
12:00+34вюв4231100 0.0 10102505
15:00+32юв774193 0.0 10081589
18:00+26вюв8106630 0.0 1009876
21:00+25в6107617 0.0 1012814
27 февраля, сб
сб2700:00+24всв48811 0.0 1012579
03:00+23всв38880 0.0 1010393
06:00+22в278867 0.0 1012414
09:00+29в455656 0.0 10131186
12:00+33вюв543848 0.0 10112002
15:00+33вюв773744 0.0 10081991
18:00+27вюв796537 0.0 1010946
21:00+24в5108228 0.0 1012712
28 февраля, вс
вс2800:00+23вюв38907 0.0 1011468
03:00+22вюв279615 0.2 1010330
06:00+22вюв279511 0.1 1011355
09:00+28вюв455729 0.1 10121250
12:00+34вюв563197 0.0 10102367
15:00+34вюв863070 0.0 10072188
18:00+27вюв79584 0.0 1008780
21:00+24вюв59782 0.0 1010574
1 марта, пн
пн100:00+23в388629 0.0 1010433
03:00+22вюв269222 0.0 1009273
06:00+23вюв128915 0.0 1010150
09:00+29в565215 0.0 10111341
12:00+31вюв664999 0.9 10091444
15:00+30вюв795499 3.7 10071388
18:00+26вюв7107034 0.1 1009833
21:00+24вюв598523 0.1 1011657
2 марта, вт
вт200:00+23в598657 0.1 1011621
03:00+22вюв398233 0.3 1010418
06:00+22вюв38873 0.0 1011402
09:00+28в45491 0.0 10131352
12:00+34вюв44281 0.0 10112322
15:00+34юв75291 0.0 10092322
18:00+26вюв79661 0.0 1011896
21:00+24вюв698011 0.0 1013808